CAPE
28 11 10 8 7 1 0 0 0 0 0 0 0 0 0 0 0 0 0 0 0 0 0 0 0 0 0 0 0 0 0 0 0 0 0 0 0 0 0 0 0 0 0 0 0 0 0
26 23 5 9 5 0 2 3 0 0 0 0 0 0 0 0 0 0 0 0 0 0 0 0 0 1 0 0 0 0 0 0 0 0 0 0 0 0 0 0 0 0 0 0 0 0 0
17 9 2 0 0 0 2 0 0 0 0 0 0 0 0 0 0 0 0 0 0 0 0 0 0 0 0 0 0 0 0 0 0 0 0 0 0 0 0 0 0 0 0 0 0 0 0
27 8 0 1 0 0 1 0 0 0 0 0 0 0 0 0 0 0 0 0 0 0 0 0 0 0 0 0 0 0 0 0 0 0 0 0 0 0 0 0 0 0 0 0 0 0 0
40 18 1 1 0 0 0 0 0 0 0 0 0 0 0 0 0 0 0 0 0 0 0 0 0 0 0 0 0 0 0 0 0 0 0 0 0 0 0 0 0 0 0 0 0 0 0
43 16 5 7 1 0 0 0 0 0 0 0 0 0 0 0 0 0 0 0 0 0 0 0 0 0 0 0 0 0 0 0 0 0 0 0 0 0 0 0 0 0 0 0 0 0 0
58 22 34 17 6 1 0 0 2 0 0 0 0 0 0 0 0 0 0 0 0 0 0 0 0 0 0 0 0 0 0 0 0 0 0 0 0 0 0 0 0 0 0 2 0 0 32
65 51 32 24 9 1 3 3 2 0 0 0 0 0 0 0 0 0 0 0 0 0 0 0 0 0 0 0 0 0 0 0 9 0 6 4 0 0 0 81 1 0 0 0 0 7 97
64 46 39 27 3 4 7 7 0 0 0 0 0 0 0 0 0 0 0 0 0 0 0 0 0 0 0 0 0 0 0 16 0 3 0 28 0 0 0 14 43 1 0 0 0 108 95
59 65 45 28 6 6 8 5 0 0 0 0 0 0 0 0 0 0 0 0 0 0 0 0 0 0 0 0 0 0 0 0 0 0 0 19 0 30 4 38 21 0 0 0 0 160 101
73 78 41 26 6 13 8 5 0 0 0 0 0 0 0 0 0 0 0 0 0 0 0 0 0 0 0 0 0 0 0 0 0 0 20 2 0 0 0 0 19 3 6 5 2 33 17
71 49 33 21 13 14 13 0 0 0 0 0 0 0 0 0 0 0 0 0 0 0 0 0 0 0 0 0 0 0 0 0 0 0 2 0 0 0 21 81 13 68 287 255 37 8 0
59 54 29 13 5 23 6 0 0 0 0 0 0 0 0 0 0 0 0 0 0 0 0 0 0 0 0 0 0 0 0 0 9 1 0 0 0 0 0 0 1 138 124 22 32 0 0
54 40 21 16 19 19 5 8 0 0 0 0 0 0 0 0 0 0 0 0 0 0 0 0 0 0 0 0 0 0 0 0 14 1 0 0 0 0 0 0 6 6 21 2 1 0 0
35 37 26 19 28 19 7 5 0 0 0 0 0 0 0 0 0 0 0 0 0 0 0 0 0 0 0 0 0 0 0 0 26 3 1 11 5 0 15 22 1 1 18 22 11 50 49
36 32 36 30 18 10 16 3 0 0 0 0 0 0 0 0 0 0 0 0 0 0 0 0 0 0 0 0 0 0 0 0 16 1 3 7 1 9 43 3 0 0 3 0 0 21 20
28 47 32 22 12 26 13 7 0 0 0 0 0 0 0 0 0 0 0 0 0 0 0 4 2 12 0 4 0 0 0 0 0 7 0 0 3 10 44 97 1 0 2 13 38 9 11
49 44 20 18 21 18 14 1 0 0 0 0 0 0 0 0 0 0 0 0 0 0 0 0 0 7 0 0 0 0 0 7 1 10 3 0 0 4 0 0 3 17 6 16 17 11 9
40 33 26 24 21 20 16 0 0 0 0 0 0 0 0 0 0 0 0 1 0 0 0 0 1 14 9 2 4 0 0 0 0 1 4 0 19 8 18 1 4 14 3 3 10 6 14
40 40 21 15 32 5 12 0 0 0 0 0 0 0 0 0 0 0 0 0 0 0 0 0 6 3 5 0 0 0 0 0 0 0 0 7 31 18 16 33 18 28 30 14 9 2 4
41 42 30 24 13 11 8 0 0 0 0 0 0 0 0 0 3 0 0 0 0 0 0 0 0 1 1 13 0 0 0 0 0 1 0 0 1 2 8 4 0 7 7 4 1 15 7
36 52 39 29 17 12 14 0 0 0 0 0 0 0 0 0 0 0 0 0 0 0 0 0 0 0 0 0 0 0 0 1 3 0 0 0 3 5 3 1 1 3 0 0 1 19 36
40 28 29 25 26 8 11 0 0 0 0 0 0 0 0 0 0 0 0 0 0 0 0 0 0 0 0 0 0 0 0 0 2 13 0 0 0 0 4 0 7 1 4 3 5 4 2
43 41 19 3 23 22 12 0 0 0 0 0 0 0 0 0 0 0 0 0 0 0 0 0 0 0 0 0 0 0 0 1 4 17 0 0 0 0 0 0 5 7 1 2 6 6 4
45 39 23 23 21 19 11 11 0 0 0 0 0 0 0 0 0 0 0 2 0 0 0 0 0 0 0 0 0 0 0 1 0 2 5 0 0 0 4 1 1 0 0 1 13 17 11
20 24 17 27 37 42 38 20 3 0 0 0 0 0 0 0 0 0 0 0 0 0 0 0 0 0 0 0 0 9 4 1 1 8 4 10 0 0 0 1 1 0 0 0 0 5 16
29 40 47 35 47 37 32 19 14 0 0 0 0 0 0 0 0 0 0 0 0 0 0 0 0 0 0 0 0 1 4 1 0 6 0 0 0 0 0 1 1 2 0 0 0 7 35
51 42 45 44 53 40 36 26 3 0 0 0 12 0 1 2 0 0 0 0 0 0 0 0 0 0 0 0 0 0 0 0 6 9 9 0 0 0 0 0 0 0 0 0 13 19 29
34 43 50 56 34 44 41 29 0 0 0 0 13 2 0 0 0 0 0 0 0 0 0 0 1 7 5 0 0 0 0 0 0 9 0 0 1 0 4 5 9 9 12 15 12 16 22
CIN
0 0 0 0 0 0 0 0 0 0 0 0 0 0 0 0 0 0 0 0 0 0 0 0 0 0 0 0 0 0 0 0 0 0 0 0 0 0 0 0 0 0 0 0 0 0 0
0 0 -1 0 0 0 0 0 0 0 0 0 0 0 0 0 0 0 0 0 0 0 0 0 0 0 0 0 0 0 0 0 0 0 0 0 0 0 0 0 0 0 0 0 0 0 0
0 0 0 -1 0 0 0 0 0 0 0 0 0 0 0 0 0 0 0 0 0 0 0 0 0 0 0 0 0 0 0 0 0 0 0 0 0 0 0 0 0 0 0 0 0 0 0
0 0 0 0 0 0 0 0 0 0 0 0 0 0 0 0 0 0 0 0 0 0 0 0 0 0 0 0 0 0 0 0 0 0 0 0 0 0 0 0 0 0 0 0 0 0 0
0 0 0 0 0 0 0 0 0 0 0 0 0 0 0 0 0 0 0 0 0 0 0 0 0 0 0 0 0 0 0 0 0 0 0 0 0 0 0 0 0 0 0 0 0 0 0
0 0 0 0 0 0 0 0 0 0 0 0 0 0 0 0 0 0 0 0 0 0 0 0 0 0 0 0 0 0 0 0 0 0 0 0 -5 0 0 0 0 0 0 0 0 0 0
0 0 0 0 0 0 0 0 0 0 0 0 0 0 0 0 0 0 0 0 0 0 0 0 0 0 0 0 0 0 0 0 0 0 0 0 0 -1 0 0 0 0 0 0 0 0 -45
0 0 0 0 0 0 0 0 0 0 0 0 0 0 0 0 0 0 0 0 0 0 0 0 0 0 0 0 0 0 0 0 -4 -4 -2 -4 0 0 0 -3 -2 0 0 0 0 -28 -106
0 0 0 0 0 0 0 0 0 0 0 0 0 0 0 0 0 0 0 0 0 0 0 0 0 0 0 0 0 0 0 -14 0 -35 0 -7 0 -6 0 -1 -6 -1 0 0 0 -69 -91
0 0 0 0 0 0 0 0 0 0 0 0 0 0 0 0 0 0 0 0 0 0 0 0 0 0 0 0 0 0 0 -8 0 0 0 -1 0 -11 -14 -4 -13 0 0 0 0 -47 -11
0 0 0 0 0 0 0 0 0 0 0 0 0 0 0 0 0 0 0 0 0 0 0 0 0 0 0 0 0 0 0 0 0 0 -3 -11 0 0 0 0 -16 -11 -1 -1 -1 -127 -89
0 0 0 0 0 0 0 0 0 0 0 0 0 0 0 0 0 0 0 0 0 0 0 0 0 0 0 0 0 0 0 0 0 0 -18 0 0 0 -11 -24 -30 -73 -25 -68 -98 -28 0
0 0 -2 0 0 0 0 0 0 0 0 0 0 0 0 0 0 0 0 0 0 0 0 0 0 0 0 0 0 0 0 0 -16 -8 0 0 0 0 0 0 -38 -9 -12 -24 -9 -1 0
0 0 0 0 0 0 0 0 0 0 0 0 0 0 0 0 0 0 0 0 0 0 0 0 0 0 0 0 0 0 0 0 -93 -28 0 0 0 0 0 0 -24 -60 -20 -1 -25 0 0
-1 0 0 0 0 0 0 0 0 0 0 0 0 0 0 0 0 0 0 0 0 0 0 0 0 0 0 0 0 0 0 0 -38 -79 -4 -55 -2 0 -92 -72 -33 -6 -24 -28 -47 -48 -15
0 0 0 0 0 0 0 0 0 0 0 0 0 0 0 0 0 0 0 0 0 0 0 0 0 0 0 0 0 0 0 0 -7 0 -51 -24 0 -38 -40 -25 -16 0 -24 0 0 -10 -2
0 0 0 0 0 0 0 0 0 0 0 0 0 0 0 0 0 0 0 0 0 0 -1 -1 -1 -3 0 0 0 -1 0 0 0 0 0 0 0 -16 -39 -70 -10 0 -99 -39 -10 -2 0
0 0 0 0 0 0 0 0 0 0 0 0 0 -2 0 0 0 0 0 0 0 0 0 0 -1 -5 -3 -2 0 0 0 -1 0 0 0 -1 0 -7 -12 -3 -21 -26 -34 -15 -17 0 0
0 0 0 0 0 0 0 0 0 0 0 0 0 0 0 0 0 0 0 -4 0 0 0 0 -5 -7 -37 0 -2 0 0 0 0 0 0 0 -14 -9 -10 -1 0 -3 -4 -16 -10 -1 0
0 0 0 0 0 -1 0 0 0 0 0 0 0 0 0 0 0 0 0 0 0 0 0 0 -5 -10 -9 -6 0 0 0 0 0 -1 0 -49 -33 -1 -1 -2 -9 -4 -1 -2 -2 0 -5
0 0 -1 0 -2 0 0 0 0 0 0 0 0 0 0 0 -6 0 0 0 0 0 0 -1 0 -2 -5 -2 0 0 0 0 -2 -3 0 0 0 0 -2 0 0 0 0 0 -2 -4 0
0 0 0 0 -1 0 0 0 0 0 0 0 0 0 0 0 0 0 0 0 0 0 0 0 0 0 0 0 0 0 0 0 -2 0 0 0 0 0 -11 0 0 0 0 0 0 -33 0
0 0 -1 -1 0 -1 -2 0 0 0 0 0 0 0 0 0 0 0 0 0 0 0 0 0 0 0 0 0 0 0 0 0 -34 -18 0 0 -1 0 0 0 -14 -1 0 0 0 0 0
0 0 -2 -2 -1 -1 -3 0 0 0 0 0 0 0 0 0 0 0 0 0 0 0 0 0 0 0 0 0 0 0 0 -49 -28 -42 -16 0 0 -8 0 0 -2 0 0 0 0 0 -2
0 0 0 0 -1 -2 -4 -3 0 0 0 0 0 0 0 0 0 -1 0 -5 -3 0 0 0 0 0 0 0 0 0 0 -7 0 -10 -24 0 -7 0 -6 0 0 0 0 0 0 0 0
-1 0 -1 -1 -2 -3 -1 -1 -4 0 0 0 0 0 0 0 0 0 0 0 0 0 0 0 0 0 0 0 0 -2 -6 -3 -2 -21 -39 -44 0 -1 -1 -3 0 0 0 0 0 0 0
-1 0 0 0 -1 -3 -2 -4 -2 0 0 0 0 0 -7 0 -1 0 0 0 0 0 0 0 0 0 0 0 0 -1 -1 -3 0 -3 -41 0 0 0 0 0 0 0 0 0 0 0 0
-1 -2 -1 -1 0 -1 -3 -3 -3 0 0 0 -3 -2 -15 -4 0 0 0 0 0 0 0 0 0 0 0 -1 0 0 0 -1 -9 -1 -2 0 0 0 0 0 0 -1 0 0 0 0 0
0 0 0 -1 -1 -1 0 -1 0 0 0 0 -2 -4 0 0 -1 0 0 0 0 0 0 0 -4 -4 -8 0 0 0 0 0 -1 -1 0 -1 -7 0 0 0 0 0 0 0 0 0 0
Wind_Speed
18 16 14 11 9 8 7 5 4 2 1 4 6 8 11 13 15 15 16 17 18 20 19 18 16 15 7 3 15 10 13 12 5 4 7 10 12 8 20 8 14 23 25 23 26 21 27
19 18 16 13 10 8 7 6 4 3 2 4 7 9 12 15 16 18 18 20 20 20 20 18 14 9 3 9 9 10 3 3 9 10 13 13 9 11 16 19 18 11 20 24 23 22 26
22 22 19 17 14 10 8 7 5 4 3 5 7 10 13 16 18 19 21 22 23 21 21 18 12 5 8 25 9 18 22 9 13 14 15 11 8 9 6 11 15 19 23 21 22 27 27
24 24 22 19 16 14 11 9 7 5 4 5 8 11 14 16 19 21 23 24 24 26 20 19 8 5 10 10 5 10 8 12 12 15 15 12 13 16 12 8 21 20 20 20 24 22 22
25 25 24 22 20 14 12 10 9 6 5 5 8 11 15 17 19 22 24 27 29 27 16 12 3 6 13 11 2 10 9 16 16 14 14 14 14 16 15 18 14 12 19 22 24 20 15
28 26 25 23 20 19 13 11 9 7 5 5 8 11 14 17 19 21 24 30 25 13 5 7 6 5 6 14 22 22 19 13 13 16 17 14 12 14 15 11 17 18 14 20 22 16 18
28 26 25 22 21 18 15 12 10 8 5 6 8 11 14 17 20 22 14 8 8 5 8 5 14 22 22 10 21 9 17 18 17 11 14 14 13 15 19 17 20 19 21 19 15 24 5
28 27 24 21 17 16 14 13 10 7 5 6 9 12 14 17 20 22 9 5 5 3 11 16 21 20 23 12 12 12 12 12 15 13 17 14 20 24 19 18 20 23 23 23 18 15 4
29 26 24 21 19 15 14 12 10 7 4 6 9 12 15 17 20 11 1 7 6 7 4 11 8 7 3 2 8 17 11 7 10 17 19 21 23 20 21 21 17 24 21 18 20 3 5
27 24 25 21 18 16 14 12 10 7 4 5 9 12 15 16 7 5 2 6 5 2 3 9 5 4 5 7 19 14 20 7 9 18 16 18 21 24 22 15 20 19 19 22 23 5 3
26 26 23 21 17 15 13 12 9 6 4 5 8 11 14 10 6 4 4 7 6 4 4 16 6 3 17 13 20 9 13 14 16 18 11 14 16 13 19 21 17 22 17 22 21 6 7
30 25 24 22 19 15 14 12 9 5 5 6 9 12 14 4 4 5 5 6 3 4 4 10 13 21 20 15 14 11 12 9 13 12 10 17 15 10 5 7 15 22 2 6 5 2 3
27 25 25 23 19 18 14 11 9 5 5 7 10 12 10 6 4 6 6 3 5 4 12 10 23 23 17 22 13 14 15 11 2 1 4 11 15 15 9 8 15 12 9 2 3 4 5
27 26 24 21 20 17 15 12 9 5 5 8 11 12 8 6 3 4 2 4 4 11 9 15 16 15 9 18 10 19 20 16 3 4 5 4 7 3 6 17 7 5 8 6 6 4 4
26 25 23 22 20 17 14 11 8 5 5 8 12 3 4 4 2 3 2 6 2 6 11 13 15 7 8 13 10 12 17 15 11 4 4 5 5 21 18 15 19 6 7 1 4 2 3
27 24 23 21 19 15 13 11 8 4 5 7 3 3 2 4 1 2 4 2 3 6 8 6 5 5 11 15 13 14 17 11 16 18 21 4 7 10 11 4 3 7 2 4 3 1 4
24 24 23 20 16 14 11 9 5 3 4 5 2 1 4 4 2 2 3 1 3 7 8 8 5 6 6 11 9 7 9 15 17 18 19 2 4 3 1 5 2 4 4 5 3 3 5
22 22 20 18 16 13 11 8 4 3 6 2 4 2 5 2 4 2 2 3 6 8 5 5 6 4 2 7 7 4 3 4 20 20 6 5 4 4 2 5 5 7 5 1 3 3 2
21 21 19 17 15 13 11 8 4 2 5 3 3 3 3 4 3 3 4 3 4 9 6 4 3 5 1 3 5 5 5 9 14 17 12 6 2 3 2 2 4 2 6 9 2 3 3
19 20 20 16 16 12 9 6 3 2 4 1 2 2 1 1 3 3 3 3 5 8 6 5 4 6 2 4 5 8 6 8 17 12 15 8 4 4 6 6 2 4 4 4 7 1 2
20 19 17 16 13 12 10 6 3 3 4 1 2 3 3 2 3 1 3 1 4 4 5 6 4 10 9 2 7 4 7 18 12 12 10 5 7 9 7 12 15 9 14 9 7 10 2
20 18 14 14 11 12 10 7 3 4 7 2 4 1 2 2 1 5 3 3 3 5 6 6 7 12 9 5 4 19 18 12 5 11 7 8 4 5 15 14 12 14 18 23 21 14 15
19 17 14 14 14 12 10 7 3 3 5 2 3 2 4 4 2 3 0 3 6 7 5 8 9 8 7 10 15 21 17 16 13 6 2 2 5 6 3 6 10 14 18 22 21 22 14
17 16 15 13 14 12 11 6 2 2 3 2 2 3 4 3 2 2 4 3 6 7 7 7 6 6 7 15 17 12 2 8 12 9 6 3 2 3 2 5 5 9 15 19 24 22 19
14 14 18 14 15 13 10 7 3 1 5 2 3 4 2 1 3 7 4 5 7 8 7 6 11 7 8 9 5 5 4 4 2 11 3 4 2 3 2 3 7 13 15 11 5 14 19
15 15 15 15 13 11 10 8 5 3 2 1 2 2 2 4 3 10 4 7 3 5 7 7 15 9 8 3 3 4 3 4 1 8 10 8 6 3 1 4 5 7 20 15 5 9 14
17 19 17 15 13 12 11 8 7 4 2 2 2 4 3 2 3 6 4 2 4 4 2 5 10 7 7 4 3 3 3 7 5 7 8 6 6 7 6 5 3 15 21 14 4 3 7
18 16 15 13 13 12 11 10 7 5 1 2 2 5 2 2 5 5 7 4 5 4 2 6 6 6 5 7 4 4 3 4 2 4 5 5 5 5 5 5 4 21 8 9 2 5 8
15 14 13 13 13 11 11 10 7 4 3 1 2 2 2 3 4 2 7 11 7 3 1 4 1 4 3 4 4 3 3 4 6 3 7 5 3 3 5 4 4 9 10 8 7 4 4
Wind_Direction
184 183 181 189 191 203 203 203 185 196 273 322 320 320 321 320 317 316 318 315 306 312 319 317 316 322 341 212 248 264 206 207 180 203 215 232 248 259 248 238 223 236 258 260 256 254 246
181 176 174 180 186 207 213 206 222 220 262 311 314 323 322 319 319 319 315 312 309 313 310 303 304 308 228 258 257 272 24 230 232 216 231 225 224 230 278 271 251 256 256 257 260 259 247
182 172 173 174 179 193 204 215 235 237 279 303 316 327 322 318 319 317 313 314 311 305 298 293 287 253 243 241 298 318 308 290 284 273 282 255 240 226 291 286 265 262 265 270 253 252 259
177 175 174 174 176 183 195 206 223 242 269 304 323 323 317 316 318 315 315 312 305 295 293 279 264 251 248 259 286 302 311 293 290 281 282 277 275 280 273 287 284 276 269 263 255 255 254
180 178 177 176 171 179 192 207 214 237 266 307 319 317 316 318 319 317 317 307 298 289 271 252 239 194 276 294 313 285 348 315 309 309 279 260 246 251 267 262 278 250 248 250 264 239 250
180 179 177 179 173 169 192 209 207 232 257 297 309 310 315 320 319 317 318 303 286 296 276 207 227 306 225 308 318 317 309 305 297 299 302 292 285 245 240 240 244 254 254 247 256 263 233
180 180 176 176 173 168 189 207 204 220 253 289 305 312 317 320 317 315 332 331 18 349 22 254 274 292 289 279 300 287 291 300 296 292 273 268 271 257 248 238 242 260 271 246 251 249 251
174 171 171 173 179 171 188 200 204 216 248 293 310 314 316 321 317 314 316 41 34 269 306 278 253 253 253 256 296 301 307 302 306 270 281 294 254 255 264 236 248 243 254 266 276 264 61
167 166 169 172 169 177 192 194 199 209 246 295 308 311 318 320 315 308 172 40 33 37 301 294 247 248 267 298 270 285 295 303 259 250 271 270 252 271 248 252 255 248 241 254 253 98 80
160 164 163 167 169 180 187 197 202 205 233 284 304 311 315 324 317 314 67 7 345 38 5 333 346 28 296 282 285 326 298 348 276 284 288 280 267 246 260 240 255 240 245 244 252 176 223
157 162 157 162 167 178 188 190 203 215 244 284 300 307 312 326 296 343 335 356 316 71 67 335 15 319 319 298 311 340 328 296 275 274 241 249 279 242 254 245 241 267 242 254 236 125 136
156 160 163 160 165 179 188 188 200 221 257 289 298 306 323 323 198 274 348 315 3 43 332 319 352 322 327 336 321 301 319 297 254 262 228 267 265 245 246 281 249 276 118 49 41 71 223
159 161 158 157 166 180 185 192 199 217 261 288 294 305 304 310 256 342 328 13 30 66 335 336 330 330 334 332 328 330 328 326 242 213 234 278 263 241 182 293 287 226 135 64 171 193 221
153 158 157 161 173 180 180 194 197 217 270 289 302 311 281 245 326 315 343 48 28 358 331 324 320 318 318 357 331 330 346 348 204 220 315 237 330 196 240 223 206 166 148 168 186 179 159
160 162 160 166 174 181 180 192 195 219 273 301 316 250 250 237 271 5 56 68 7 352 326 327 320 318 319 336 333 346 358 351 351 187 288 12 322 310 279 262 200 204 192 225 70 198 63
158 162 159 168 167 178 177 186 186 230 277 325 328 240 189 228 121 43 63 22 356 311 325 317 354 331 315 335 346 346 359 345 342 350 349 101 302 253 276 21 43 150 114 63 37 358 206
156 161 162 161 164 171 171 191 178 233 292 331 278 208 244 235 86 46 120 5 323 352 19 328 310 302 289 322 321 323 328 312 356 324 322 153 263 150 1 2 56 55 31 40 62 190 338
148 154 154 159 163 161 176 173 175 264 321 293 254 117 238 123 48 209 157 298 351 348 349 357 311 284 254 312 306 315 294 308 315 316 346 258 320 346 39 248 314 326 153 6 132 193 190
157 158 160 166 166 161 165 167 183 289 345 320 244 142 273 97 106 329 354 10 15 342 326 346 287 298 172 274 328 283 287 307 320 330 342 299 268 349 347 135 26 278 174 199 208 297 23
160 156 158 162 159 160 162 166 198 286 333 305 315 60 350 90 176 232 23 351 343 312 271 268 310 308 7 307 288 285 314 325 312 337 337 296 60 35 286 309 302 144 128 52 190 109 97
151 158 157 154 156 164 161 172 205 272 319 348 28 245 169 212 265 198 283 275 311 294 332 327 336 342 348 284 319 328 310 336 316 355 341 39 14 344 298 309 69 47 69 33 24 132 62
159 157 155 160 160 160 163 169 204 293 323 249 138 79 332 238 106 222 209 238 290 332 314 309 346 325 350 352 329 306 315 325 291 326 358 6 335 298 86 88 76 87 87 70 54 45 87
158 158 153 152 153 157 154 165 209 306 357 288 311 4 100 294 251 146 134 11 320 299 299 326 310 316 330 328 311 293 290 263 248 282 321 41 336 352 78 136 93 64 61 61 59 42 55
161 163 157 157 156 159 150 169 174 344 349 275 299 62 67 271 263 98 75 334 311 300 267 295 311 19 306 306 299 287 133 217 280 232 212 318 294 229 233 353 70 89 53 77 65 37 34
159 157 163 159 154 151 147 164 155 74 360 312 313 70 34 312 336 11 41 6 355 0 1 5 8 305 301 308 314 323 329 4 343 320 220 231 357 354 33 36 143 36 13 349 43 45 24
151 164 162 160 155 153 153 160 159 118 4 310 340 349 70 97 29 331 346 20 358 348 353 345 352 315 10 294 327 320 336 336 28 315 15 8 29 117 245 58 39 356 329 319 282 53 17
154 166 159 160 161 153 156 164 181 159 53 353 10 13 41 93 285 5 35 334 321 338 327 327 342 335 32 352 354 345 328 344 0 13 359 357 0 31 8 89 83 351 327 309 94 22 12
159 160 161 160 158 154 159 154 146 142 152 17 60 36 60 36 302 356 358 4 349 28 22 303 6 346 6 26 8 339 332 332 38 1 19 40 342 17 355 55 13 356 14 55 53 46 43
152 149 156 155 153 158 163 162 147 142 160 9 94 54 78 109 256 353 257 256 242 249 298 331 183 307 38 38 8 331 337 334 318 2 18 44 48 81 26 80 77 45 67 62 58 74 44